This is the latest recevied weather packets stored in our database for station/object KN6CRX. If no packets are shown the sender has not sent any weather packets the latest 10 day(s).
| Time | Temp. | Humidity | Pressure | Rain* | Wind** | Luminosity | Snow |
|---|---|---|---|---|---|---|---|
| 1787771152 | 30° C | 33% | 1025.1 hPa | 0 mm | - | 617 W/m² | - |
| 1787770849 | 29.44° C | 33% | 1025.2 hPa | 0 mm | - | 643 W/m² | - |
| 1787770547 | 29.44° C | 34% | 1025.3 hPa | 0 mm | - | 704 W/m² | - |
| 1787770246 | 28.89° C | 37% | 1025.3 hPa | 0 mm | - | 384 W/m² | - |
| 1787769945 | 28.33° C | 37% | 1025.4 hPa | 0 mm | - | 283 W/m² | - |
| 1787769641 | 27.78° C | 36% | 1025.5 hPa | 0 mm | - | 638 W/m² | - |
| 1787769338 | 27.78° C | 37% | 1025.5 hPa | 0 mm | - | 487 W/m² | - |
| 1787769034 | 27.78° C | 36% | 1025.6 hPa | 0 mm | - | 362 W/m² | - |
| 1787768729 | 26.67° C | 37% | 1025.8 hPa | 0 mm | - | 675 W/m² | - |
| 1787768426 | 25.56° C | 38% | 1025.8 hPa | 0 mm | - | 647 W/m² | - |
| 1787768121 | 25.56° C | 39% | 1025.8 hPa | 0 mm | - | 386 W/m² | - |
| 1787767822 | 25.56° C | 40% | 1026 hPa | 0 mm | - | 164 W/m² | - |
| 1787767518 | 25.56° C | 38% | 1025.8 hPa | 0 mm | - | 143 W/m² | - |
| 1787767217 | 25.56° C | 38% | 1025.8 hPa | 0 mm | - | 162 W/m² | - |
| 1787766915 | 26.11° C | 40% | 1025.9 hPa | 0 mm | - | 200 W/m² | - |
| 1787766610 | 25.56° C | 39% | 1026 hPa | 0 mm | - | 234 W/m² | - |
| 1787766309 | 25° C | 42% | 1025.8 hPa | 0 mm | - | 807 W/m² | - |
| 1787766003 | 24.44° C | 43% | 1025.9 hPa | 0 mm | - | 240 W/m² | - |
| 1787765700 | 25° C | 41% | 1025.9 hPa | 0 mm | - | 227 W/m² | - |
| 1787765395 | 25° C | 41% | 1025.8 hPa | 0 mm | - | 266 W/m² | - |
| 1787765094 | 25° C | 40% | 1025.6 hPa | 0 mm | - | 290 W/m² | - |
| 1787764789 | 24.44° C | 39% | 1025.8 hPa | 0 mm | - | 271 W/m² | - |
| 1787764485 | 23.89° C | 39% | 1025.9 hPa | 0 mm | - | 803 W/m² | - |
| 1787764180 | 25° C | 39% | 1026 hPa | 0 mm | - | 197 W/m² | - |
| 1787763876 | 25° C | 38% | 1026 hPa | 0 mm | - | 192 W/m² | - |
* Rain latest hour (hover to see other rain measurements)
** Current wind speed in m/s (hover to see current wind gust speed)